Location: Newark
(61.5000°N, 23.7667°E)
Time: 09:09:15
(UTC+00:00)

ISS - Pass Details

Date: 24 September 2019
Orbit: 411 x 421 km, 51.6° (Epoch: 16 October)

Event Time Altitude Azimuth Distance (km) Brightness Sun altitude
Rises 17:49:54 0° 218° (SW) 2,341 0.3 -11.3°
Reaches altitude 10° 17:53:00 10° 187° (S) 1,481 -1.1 -11.7°
Maximum altitude 17:54:22 12° 162° (SSE) 1,360 -1.5 -11.8°
Enters shadow 17:54:41 12° 156° (SSE) 1,367 -1.6 -11.9°
